Погода в Михайловке

Россия / Томская область     56°42′33″N   86°48′29″E
темп.,
°C
ветер,
м/с
пор.,
м/с
влажн.,
%
обл.,
%
осадки,
мм/ч
давл.,
гПа
погр.,
м
29 ноября, пн
пн2901:00−7юз6139187 0.1 1032434
04:00−7юз61292100 0.0 1033360
07:00−8юз51092100 0.0 1033304
10:00−9юз51292100 0.0 1033355
13:00−8юз51292100 0.1 1032436
16:00−7ююз51291100 0.0 1031435
19:00−8ююз61389100 0.0 1030398
22:00−7юз61487100 0.0 1029401
30 ноября, вт
вт3001:00−7юз6148398 0.0 1027438
04:00−8юз6147995 0.0 1026393
07:00−8юз6158076 0.0 1025380
10:00−8юз6158082 0.0 1025410
13:00−6юз71579100 0.0 1024492
16:00−6юз71577100 0.0 1023459
19:00−7юз6148116 0.0 1023400
22:00−8юз6148223 0.0 1024342
1 декабря, ср
ср101:00−8юз61384100 0.0 1025344
04:00−9юз51087100 0.0 1026278
07:00−10юз51086100 0.0 1026238
10:00−12ююз41086100 0.0 1027228
13:00−10ююз41286100 0.0 1026292
16:00−8ююз41084100 0.0 1025308
19:00−8ююз61483100 0.0 1024398
22:00−7юз61682100 0.0 1022444
2 декабря, чт
чт201:00−6юз51483100 0.0 1022535
04:00−5юз61481100 0.0 1021432
07:00−5юз51483100 0.0 1021453
10:00−6ююз61483100 0.0 1021412
13:00−5юз61581100 0.0 1020440
16:00−4ююз61480100 0.0 1018416
19:00−5ююз61580100 0.0 1018388
22:00−5ююз61579100 0.0 1017357
3 декабря, пт
пт301:00−5ююз61677100 0.0 1015371
04:00−4ююз61776100 0.0 1013381
07:00−2ююз71873100 0.0 1010446
10:00−1ююз81873100 0.0 1008490
13:00+1ююз81971100 0.0 1004635
16:00+2ююз91875100 0.0 1002862
19:000юз101996100 0.9 10021095
22:000зюз101785100 0.3 10071218